1998-067ST

Last updated on Sat Apr 23 2022 00:03:22 GMT+0000 (Coordinated Universal Time)

1 49274U 98067ST 22112.52452443 .00104382 00000+0 10251-2 0 9991 2 49274 51.6360 243.8880 0001920 342.8607 17.2323 15.65218420 30920

Satellite not in orbit